Location: Banovi?i
(43.7717°N, 16.6089°E)
Time: 16:27:51
(UTC+00:00)

Daily predictions for brighter satellites

Satellite Brightness Start Highest point End
(mag) Time Altitude Azimuth Time Altitude Azimuth Time Altitude Azimuth
STARLINK-1119 3.7 19:02:34 10° WNW 19:06:43 78° SW 19:10:51 10° SE
Cosmos 1300 Rocket 3.9 19:04:49 10° NNW 19:09:15 72° W 19:13:39 10° S
Aureole 2 Rocket 3.2 19:08:13 10° SW 19:11:11 48° WNW 19:14:00 10° N
STARLINK-1114 3.7 19:07:35 10° WNW 19:11:43 71° SW 19:15:50 10° SE
Cosmos 2279 Rocket 4.1 19:08:24 10° N 19:14:40 86° W 19:20:52 10° S
CENTAUR R/B 3.9 19:07:25 10° NNW 19:14:57 44° NE 19:23:12 10° ESE
Resurs 01 Rocket 1.7 19:11:31 10° SSE 19:15:55 68° ENE 19:20:21 10° N
STARLINK-1130 (DARKSAT) 3.8 19:12:32 10° WNW 19:16:39 65° SW 19:20:45 10° SE
USA 245 4.2 19:15:17 10° ESE 19:16:53 15° ENE 19:18:24 10° NNE
MOS 1 Rocket 3.9 19:12:54 10° N 19:17:06 54° WNW 19:21:17 10° SSW
Cosmos 2151 Rocket 3.9 19:14:00 10° NNW 19:18:31 73° W 19:23:01 10° S
Cosmos 1066 Rocket 4.1 19:16:21 10° S 19:21:38 64° E 19:26:55 10° NNE
STARLINK-1084 3.9 19:17:33 10° WNW 19:21:39 60° SW 19:25:36 11° SE
Cosmos 1110 Rocket 4.0 19:17:08 10° SSW 19:22:19 88° ESE 19:27:32 10° NNE
Spot 2 Rocket 4.1 19:17:42 10° SE 19:22:24 41° ENE 19:27:07 10° N
Meteor 1-23 Rocket 4.2 19:17:17 10° S 19:22:53 68° E 19:28:28 10° NNE
ATLAS 3B R/B 4.3 19:17:26 10° NNW 19:22:54 25° NNE 19:28:30 10° E
STARLINK-52 3.2 19:20:49 10° SW 19:23:54 46° SE 19:27:00 10° ENE
Cosmos 304 Rocket 4.4 19:20:45 10° SSW 19:25:28 61° WNW 19:30:15 10° NNE
NOSS 2-2 (D) 3.8 19:22:42 10° SW 19:26:14 60° NW 19:30:07 10° NNE
STARLINK-1098 4.0 19:22:32 10° WNW 19:26:35 54° SW 19:30:21 12° SE
Cosmos 1378 3.6 19:24:01 10° SSE 19:27:30 40° E 19:31:01 10° NNE
Terra 3.8 19:24:52 10° E 19:27:35 15° ENE 19:30:19 10° NNE
Resurs 1-3 4.1 19:23:34 10° S 19:27:54 61° W 19:32:16 10° NNW
EXPRESS MD2 4.0 19:26:44 10° W 19:29:28 51° NNW 19:34:18 10° ENE
Cosmos 1378 Rocket 3.5 19:26:54 10° S 19:31:16 81° E 19:35:39 10° N
STARLINK-1123 4.1 19:27:32 10° WNW 19:31:33 50° SW 19:35:09 12° SSE
Cosmos 1674 Rocket 3.8 19:27:14 10° SSW 19:31:37 76° W 19:36:04 10° N
Cosmos 1331 Rocket 4.1 19:29:01 10° SSW 19:34:10 82° WNW 19:39:24 10° NNE
STARLINK-1097 4.3 19:32:33 10° WNW 19:36:31 45° SW 19:39:56 13° SSE
NOSS 3-2 (C) 4.4 19:30:58 10° NNW 19:38:23 60° NE 19:46:03 13° SE
Cosmos 1805 3.5 19:36:01 10° N 19:39:51 51° ENE 19:43:03 14° SSE
SAR-Lupe-2 4.1 19:37:26 10° NNE 19:40:50 38° E 19:43:53 12° SSE
STARLINK-1099 4.4 19:37:32 10° WNW 19:41:27 41° SW 19:44:41 14° SSE
Abrixas rocket 4.2 19:42:50 10° WSW 19:44:36 15° SW 19:46:20 10° S
COSMOS 2455 3.9 19:40:33 11° SSE 19:44:52 24° ESE 19:49:30 10° NE
STARLINK-1444 3.3 19:44:08 10° WSW 19:46:09 41° NNW 19:48:12 10° NE
NOSS 3-4 (A) 3.8 19:41:03 10° S 19:46:27 39° ESE 19:52:07 10° NE
NOSS 3-4 (C) 3.8 19:41:10 10° S 19:46:33 38° ESE 19:52:13 10° NE
STARLINK-1452 3.3 19:44:47 10° WSW 19:46:48 40° NNW 19:48:49 10° NE
STARLINK-1392 3.4 19:45:47 10° WSW 19:47:43 38° NNW 19:49:40 10° NE
STARLINK-1399 3.4 19:45:47 10° WSW 19:47:45 39° NNW 19:49:43 10° NE
STARLINK-1393 3.4 19:45:50 10° WSW 19:47:46 38° NNW 19:49:44 10° NE
STARLINK-1394 3.4 19:45:51 10° WSW 19:47:47 38° NNW 19:49:44 10° NE
STARLINK-1397 3.4 19:45:53 10° WSW 19:47:50 38° NNW 19:49:48 10° NE
STARLINK-1395 3.4 19:45:56 10° WSW 19:47:51 38° NNW 19:49:46 10° NE
STARLINK-1396 3.4 19:45:54 10° WSW 19:47:51 38° NNW 19:49:48 10° NE
STARLINK-1414 3.4 19:45:55 10° WSW 19:47:51 38° NNW 19:49:48 10° NE
STARLINK-1408 3.4 19:45:58 10° WSW 19:47:53 38° NNW 19:49:50 10° NE
STARLINK-1404 3.4 19:45:58 10° WSW 19:47:55 38° NNW 19:49:52 10° NE
STARLINK-1416 3.4 19:45:59 10° WSW 19:47:55 38° NNW 19:49:52 10° NE
STARLINK-1415 3.4 19:45:59 10° WSW 19:47:56 38° NNW 19:49:54 10° NE
STARLINK-1450 3.4 19:45:59 10° WSW 19:47:56 38° NNW 19:49:55 10° NE
STARLINK-1401 3.4 19:46:02 10° WSW 19:47:59 38° NNW 19:49:57 10° NE
STARLINK-1406 3.4 19:46:04 10° WSW 19:47:59 38° NNW 19:49:56 10° NE
STARLINK-1417 3.4 19:46:05 10° WSW 19:48:03 38° NNW 19:50:01 10° NE
STARLINK-1402 3.4 19:46:06 10° WSW 19:48:04 38° NNW 19:50:02 10° NE
STARLINK-1419 3.4 19:46:07 10° WSW 19:48:04 38° NNW 19:50:01 10° NE
STARLINK-1413 3.4 19:46:06 10° WSW 19:48:04 38° NNW 19:50:02 10° NE
STARLINK-1422 3.4 19:46:12 10° WSW 19:48:08 38° NNW 19:50:07 10° NE
STARLINK-1453 3.4 19:46:12 10° WSW 19:48:09 38° NNW 19:50:08 10° NE
STARLINK-1398 3.4 19:46:11 10° WSW 19:48:10 39° NNW 19:50:10 10° NE
STARLINK-1440 3.4 19:46:13 10° WSW 19:48:11 38° NNW 19:50:09 10° NE
STARLINK-1436 (VISORSAT) 3.4 19:46:13 10° WSW 19:48:12 39° NNW 19:50:11 10° NE
STARLINK-1420 3.4 19:46:15 10° WSW 19:48:12 38° NNW 19:50:10 10° NE
STARLINK-1460 3.4 19:46:17 10° WSW 19:48:14 38° NNW 19:50:13 10° NE
STARLINK-1410 3.4 19:46:22 10° WSW 19:48:19 38° NNW 19:50:18 10° NE
STARLINK-1423 3.4 19:46:24 10° WSW 19:48:20 38° NNW 19:50:17 10° NE
STARLINK-1421 3.4 19:46:24 10° WSW 19:48:20 38° NNW 19:50:17 10° NE
STARLINK-1400 3.4 19:46:23 10° WSW 19:48:20 38° NNW 19:50:18 10° NE
STARLINK-1454 3.4 19:46:23 10° WSW 19:48:20 38° NNW 19:50:18 10° NE
STARLINK-1458 3.4 19:46:25 10° WSW 19:48:22 38° NNW 19:50:19 10° NE
STARLINK-1445 3.4 19:46:26 10° WSW 19:48:24 38° NNW 19:50:23 10° NE
Cosmos 1302 Rocket 4.0 19:43:08 10° S 19:48:24 71° ESE 19:53:41 10° NNE
STARLINK-1446 3.4 19:46:29 10° WSW 19:48:26 38° NNW 19:50:25 10° NE
STARLINK-1407 3.4 19:46:29 10° WSW 19:48:27 38° NNW 19:50:26 10° NE
STARLINK-1405 3.4 19:46:34 10° WSW 19:48:28 37° NNW 19:50:24 10° NE
STARLINK-1457 3.4 19:46:33 10° WSW 19:48:29 38° NNW 19:50:27 10° NE
STARLINK-1370 3.4 19:46:32 10° WSW 19:48:29 38° NNW 19:50:28 10° NE
STARLINK-1451 3.4 19:46:33 10° WSW 19:48:30 38° NNW 19:50:28 10° NE
STARLINK-1456 3.4 19:46:33 10° WSW 19:48:30 38° NNW 19:50:27 10° NE
STARLINK-1455 3.4 19:46:33 10° WSW 19:48:31 38° NNW 19:50:30 10° NE
STARLINK-1437 3.4 19:46:33 10° WSW 19:48:31 38° NNW 19:50:29 10° NE
STARLINK-1409 3.4 19:46:34 10° WSW 19:48:31 38° NNW 19:50:29 10° NE
STARLINK-1447 3.4 19:46:33 10° WSW 19:48:31 38° NNW 19:50:29 10° NE
STARLINK-1439 3.4 19:46:37 10° WSW 19:48:31 37° NNW 19:50:27 10° NE
STARLINK-1441 3.4 19:46:35 10° WSW 19:48:33 38° NNW 19:50:32 10° NE
STARLINK-1443 3.4 19:46:37 10° WSW 19:48:35 38° NNW 19:50:34 10° NE
STARLINK-1351 3.4 19:46:40 10° WSW 19:48:37 38° NNW 19:50:36 10° NE
STARLINK-1418 3.4 19:46:40 10° WSW 19:48:37 38° NNW 19:50:36 10° NE
STARLINK-1442 3.4 19:46:40 10° WSW 19:48:38 38° NNW 19:50:36 10° NE
STARLINK-1403 3.4 19:46:40 10° WSW 19:48:39 38° NNW 19:50:37 10° NE
STARLINK-1434 3.4 19:46:40 10° WSW 19:48:39 38° NNW 19:50:37 10° NE
STARLINK-1448 3.4 19:46:42 10° WSW 19:48:40 38° NNW 19:50:38 10° NE
STARLINK-1433 3.4 19:46:44 10° WSW 19:48:41 38° NNW 19:50:39 10° NE
STARLINK-1449 3.4 19:46:44 10° WSW 19:48:42 38° NNW 19:50:40 10° NE
STARLINK-1438 3.4 19:46:49 10° WSW 19:48:45 38° NNW 19:50:43 10° NE
STARLINK-1411 3.4 19:46:55 10° WSW 19:48:52 38° NNW 19:50:50 10° NE
STARLINK-1412 3.4 19:46:54 10° WSW 19:48:52 38° NNW 19:50:50 10° NE
FALCON 9 DEB 3.2 19:46:14 10° SW 19:49:33 51° SE 19:52:53 10° ENE
Cosmos 1733 3.7 19:46:45 10° N 19:50:24 44° ENE 19:52:52 18° SE
CZ-2C R/B 4.0 19:45:47 10° N 19:51:05 44° WNW 19:56:20 10° SW
STARLINK-60 4.4 19:49:01 10° W 19:52:02 40° NNW 19:55:04 10° NE
SL-8 R/B 4.4 19:48:51 10° WNW 19:53:22 41° SW 19:56:40 17° SSE
STARLINK-1235 3.7 19:50:30 10° NW 19:53:52 51° NNE 19:56:27 16° ESE
SPOT 1/Viking Rocket 3.7 19:49:52 15° SSE 19:54:03 58° ENE 19:59:06 10° N
Cosmos 2263 4.4 19:49:01 10° S 19:54:22 49° ESE 19:59:46 10° NE
Cosmos 1092 Rocket 4.0 19:48:58 10° S 19:54:59 62° E 20:01:04 10° NNE
STARLINK-1352 4.5 19:51:56 10° S 19:55:18 26° SE 19:58:40 10° ENE
Cosmos 1842 3.8 19:53:22 17° SSE 19:55:59 40° E 19:59:39 10° NNE
Milstar 3 Cent rocket 4.4 19:50:18 10° SSW 19:57:13 29° SSE 20:09:33 10° E
Cosmos 1975 Rocket 3.3 19:53:45 14° SSE 19:57:26 52° E 20:01:43 10° NNE
Cosmos 1486 Rocket 4.4 19:52:36 10° NNW 19:57:47 52° ENE 20:01:30 18° SE
SL-27 R/B 2.6 19:54:22 10° NNW 19:57:54 61° ENE 19:59:59 22° SE
STARLINK-1368 4.3 19:56:13 10° SSW 19:59:39 28° SE 20:03:07 10° ENE
Cosmos 292 Rocket 3.9 19:55:38 10° S 20:00:20 56° ESE 20:05:07 10° NNE
Cosmos 1943 Rocket 2.4 19:55:55 10° SSW 20:01:28 76° WNW 20:07:06 10° NNE
STARLINK-1212 3.6 20:00:17 10° NW 20:03:21 49° NNE 20:05:19 19° E
STARLINK-1369 4.2 20:00:11 10° SSW 20:03:41 30° SE 20:07:11 10° ENE
STARLINK-1105 3.5 20:00:54 10° NW 20:03:59 49° NNE 20:05:55 19° E
STARLINK-1247 3.5 20:02:03 10° NW 20:05:08 50° NNE 20:07:02 20° E
STARLINK-1227 3.5 20:02:38 10° NW 20:05:43 51° NNE 20:07:36 20° E
STARLINK-1226 3.4 20:03:46 10° NW 20:06:52 52° NNE 20:08:42 21° E
STARLINK-1215 3.4 20:04:53 10° NW 20:08:00 53° NNE 20:09:48 22° ESE
STARLINK-1372 4.1 20:04:29 10° SSW 20:08:03 33° SE 20:11:39 10° ENE
Cosmos 1271 Rocket 3.8 20:07:48 22° SE 20:09:14 28° E 20:12:39 10° NNE
Cosmos 1953 4.4 20:07:59 10° NE 20:10:11 14° ENE 20:11:39 12° E
STARLINK-1217 3.3 20:07:06 10° NW 20:10:12 56° NNE 20:11:56 23° ESE
CZ-4B DEB 4.4 20:09:27 26° SSE 20:11:10 66° ENE 20:14:30 10° N
STARLINK-1229 3.3 20:08:10 10° NW 20:11:19 57° NNE 20:12:59 24° ESE
STARLINK-1378 4.0 20:08:46 10° SSW 20:12:25 36° SE 20:16:05 10° ENE
STARLINK-1270 3.3 20:09:18 10° NW 20:12:27 58° NNE 20:14:06 24° ESE
ATLAS 2AS CENTAUR R/B 3.0 20:06:17 10° SSW 20:14:08 69° ESE 20:22:03 10° NE
STARLINK-1189 3.2 20:11:39 10° NW 20:14:48 61° NNE 20:16:20 26° ESE
SL-4 R/B 3.1 20:11:03 10° WSW 20:15:41 57° NNW 20:20:29 10° NE
STARLINK-1188 3.2 20:12:50 10° NW 20:15:59 63° NNE 20:17:30 27° ESE
NOSS 3-2 (A) 4.3 20:08:47 10° NW 20:16:22 68° WSW 20:22:52 18° SSE
STARLINK-1379 3.9 20:13:08 10° SSW 20:16:51 39° SE 20:20:35 10° ENE
STARLINK-1191 3.1 20:15:23 10° NW 20:18:33 66° NNE 20:19:59 29° ESE
Landsat 7 4.0 20:15:51 17° S 20:19:31 69° WSW 20:24:17 10° NNW
STARLINK-1221 3.1 20:16:38 10° NW 20:19:47 68° NNE 20:21:09 30° ESE
Cosmos 1242 Rocket 2.7 20:18:28 26° SSE 20:20:17 57° E 20:23:55 10° NNE
STARLINK-1329 3.8 20:16:46 10° SSW 20:20:32 42° SE 20:24:19 10° ENE
Cosmos 1656 Rocket 3.7 20:15:25 10° S 20:20:48 57° ESE 20:26:16 10° NNE
STARLINK-1222 3.0 20:17:47 10° NW 20:20:56 69° NNE 20:22:14 31° ESE
Cosmos 1707 3.8 20:20:12 24° ESE 20:21:11 27° E 20:24:30 10° NNE
Meteor 2-13 Rocket 4.5 20:16:37 16° S 20:21:36 66° E 20:27:43 10° NNE
STARLINK-1214 3.0 20:19:06 10° NW 20:22:17 71° NE 20:23:32 33° ESE
ERS-1 Rocket 3.0 20:19:08 22° SSE 20:22:24 76° ENE 20:27:27 10° N
STARLINK-29 4.3 20:21:34 10° WSW 20:24:40 42° NNW 20:27:46 10° NE
STARLINK-1362 3.7 20:21:10 10° SSW 20:24:59 45° SE 20:28:50 10° ENE
Cosmos 1455 Rocket 2.9 20:22:49 10° N 20:27:10 78° E 20:29:27 27° SSE
STARLINK-1373 3.6 20:25:36 10° SW 20:29:28 49° SE 20:33:20 10° ENE
Cosmos 1758 3.9 20:25:35 10° N 20:29:29 43° ENE 20:31:01 30° SE
USA 238 DEB 4.3 20:24:16 10° NW 20:31:18 54° WSW 20:36:27 20° S
USA 238 4.3 20:24:21 10° NW 20:31:24 55° WSW 20:36:34 20° S
IGS 5A 4.3 20:29:40 17° SSW 20:32:33 45° W 20:36:33 10° NNW
STARLINK-1209 3.1 20:29:12 10° WNW 20:32:41 69° SW 20:33:43 41° SSE
Cosmos 2026 Rocket 4.0 20:27:21 14° S 20:32:59 89° E 20:39:24 10° N
Meteor 1-21 4.1 20:28:50 18° S 20:33:07 76° E 20:38:43 10° NNE
STARLINK-1390 3.5 20:30:03 10° SW 20:33:57 54° SE 20:37:52 10° ENE
ATLAS CENTAUR R/B 1.3 20:29:54 10° SSW 20:34:21 85° ESE 20:38:31 10° NE
Okean 2 4.2 20:30:50 11° SSW 20:34:45 51° WNW 20:38:50 10° N
Cosmos 968 Rocket 3.4 20:30:03 10° NNW 20:35:13 86° ENE 20:37:57 28° SSE
CARTOSAT-1 3.5 20:34:06 28° S 20:36:23 82° W 20:40:43 10° NNW
Cosmos 2369 Rocket 2.9 20:31:20 10° SW 20:36:53 57° WNW 20:42:27 10° NNE
STARLINK-1365 3.5 20:35:37 10° SW 20:39:37 61° SE 20:43:36 10° ENE
STARLINK-1320 2.7 20:37:06 10° SW 20:40:13 83° SE 20:43:21 10° ENE
STARLINK-1322 2.7 20:37:27 10° SW 20:40:33 84° SSE 20:43:42 10° ENE
STARLINK-1324 2.7 20:37:45 10° SW 20:40:52 84° SE 20:44:00 10° NE
STARLINK-1294 2.7 20:38:06 10° SW 20:41:12 85° SE 20:44:18 10° NE
Cosmos 1867 3.5 20:35:51 10° NNW 20:41:21 83° NE 20:44:11 29° SE
STARLINK-1261 2.7 20:38:27 10° SW 20:41:34 85° SE 20:44:42 10° NE
STARLINK-1325 2.7 20:38:48 10° SW 20:41:55 86° SSE 20:45:03 10° NE
STARLINK-1333 2.7 20:39:11 10° SW 20:42:18 87° SE 20:45:25 10° NE
STARLINK-1334 2.7 20:39:28 10° SW 20:42:35 87° SE 20:45:42 10° NE
STARLINK-1187 3.0 20:39:30 10° WNW 20:42:47 66° SW 20:43:20 53° SSE
STARLINK-1326 2.7 20:39:47 10° SW 20:42:54 88° SE 20:46:01 10° NE
STARLINK-1323 2.7 20:40:10 10° SW 20:43:16 88° SE 20:46:24 10° NE
STARLINK-1349 2.7 20:40:27 10° SW 20:43:33 89° SE 20:46:41 10° NE
STARLINK-1336 2.7 20:40:47 10° SW 20:43:54 89° E 20:47:02 10° NE
STARLINK-1331 2.7 20:41:10 10° SW 20:44:16 90° W 20:47:24 10° NE
STARLINK-1344 2.7 20:41:28 10° SW 20:44:35 89° NNW 20:47:43 10° NE
Cosmos 1553 Rocket 4.0 20:38:32 10° N 20:44:45 68° E 20:48:07 28° SSE
STARLINK-1343 2.7 20:41:51 10° SW 20:44:57 89° NW 20:48:05 10° NE
STARLINK-1346 2.8 20:42:08 10° SW 20:45:15 88° NW 20:48:25 10° NE
STARLINK-1328 2.8 20:42:34 10° SW 20:45:40 87° NW 20:48:48 10° NE
STARLINK-1354 2.8 20:42:51 10° SW 20:45:58 87° NNW 20:49:05 10° NE
STARLINK-1347 2.8 20:43:10 10° SW 20:46:16 87° NW 20:49:24 10° NE
STARLINK-1234 3.4 20:43:11 10° WNW 20:46:40 55° SW 20:47:18 46° S
STARLINK-1357 2.8 20:43:34 10° SW 20:46:41 86° NW 20:49:48 10° NE
STARLINK-1335 2.8 20:43:51 10° SW 20:46:58 85° NW 20:50:06 10° NE
STARLINK-1327 2.8 20:44:13 10° SW 20:47:19 85° NW 20:50:27 10° NE
STARLINK-1340 2.8 20:44:31 10° WSW 20:47:38 84° NNW 20:50:46 10° NE
STARLINK-1356 2.8 20:44:53 10° WSW 20:48:00 83° NNW 20:51:08 10° NE
STARLINK-1345 2.8 20:45:12 10° WSW 20:48:18 83° NW 20:51:26 10° NE
STARLINK-1355 2.8 20:45:33 10° WSW 20:48:40 82° NNW 20:51:48 10° NE
STARLINK-1321 2.8 20:45:54 10° WSW 20:49:01 82° NW 20:52:08 10° NE
STARLINK-1358 2.8 20:46:17 10° WSW 20:49:24 81° NNW 20:52:31 10° NE
STARLINK-1332 2.9 20:46:34 10° WSW 20:49:41 80° NW 20:52:49 10° NE
STARLINK-1348 2.9 20:46:54 10° WSW 20:50:01 80° NW 20:53:09 10° NE
STARLINK-1330 2.9 20:47:15 10° WSW 20:50:21 79° NW 20:53:29 10° NE
STARLINK-1363 2.9 20:47:34 10° WSW 20:50:41 79° NW 20:53:48 10° NE
STARLINK-1206 4.4 20:46:45 10° NW 20:50:46 48° NNE 20:53:07 22° E
STARLINK-1337 2.9 20:47:57 10° WSW 20:51:04 78° NNW 20:54:11 10° NE
STARLINK-1338 3.3 20:47:16 10° SW 20:51:12 75° SE 20:55:10 10° ENE
STARLINK-1342 2.9 20:48:16 10° WSW 20:51:23 78° NNW 20:54:30 10° NE
STARLINK-1364 2.9 20:48:36 10° WSW 20:51:43 77° NW 20:54:50 10° NE
STARLINK-1228 3.5 20:48:26 10° WNW 20:51:57 50° SW 20:52:28 45° S
STARLINK-1376 2.9 20:48:57 10° WSW 20:52:03 77° NW 20:55:11 10° NE
STARLINK-1360 2.9 20:49:17 10° WSW 20:52:23 76° NW 20:55:31 10° NE
STARLINK-1361 2.9 20:49:38 10° WSW 20:52:44 76° NW 20:55:51 10° NE
Resurs 01 Rocket 4.3 20:51:06 10° WSW 20:52:52 12° W 20:54:39 10° WNW
STARLINK-1367 3.0 20:49:55 10° WSW 20:53:01 75° NNW 20:56:09 10° NE
STARLINK-1366 3.0 20:50:17 10° WSW 20:53:23 74° NW 20:56:31 10° NE
STARLINK-1205 4.3 20:51:42 10° NW 20:55:46 51° NNE 20:57:54 25° E
Cosmos 1536 Rocket 3.5 20:55:58 40° SSE 20:57:25 67° E 21:01:47 10° NNE
Cosmos 2084 3.6 20:56:26 37° S 20:57:50 55° ESE 21:02:13 10° NE
STARLINK-1371 3.3 20:55:09 10° SW 20:59:04 85° SE 21:03:01 10° NE
STARLINK-1218 4.1 20:56:42 10° NW 21:00:46 55° NNE 21:02:42 28° E
SPOT 5 3.5 20:57:53 26° S 21:00:50 57° W 21:06:09 10° NNW
In-Cosmos 22 4.4 20:59:51 34° SE 21:01:38 48° E 21:06:43 10° NNE
STARLINK-1341 3.4 20:59:23 10° SW 21:03:18 89° NW 21:07:15 10° NE
Cosmos 1544 Rocket 3.9 21:00:22 10° NNW 21:04:39 57° W 21:06:25 32° SSW
Terra 1.9 21:02:43 34° S 21:04:46 69° WSW 21:09:32 10° NNW
Cosmos 2266 Rocket 4.2 21:03:13 32° SSE 21:05:41 51° E 21:11:30 10° NNE
STARLINK-1254 4.0 21:01:40 10° NW 21:05:47 59° NNE 21:07:29 32° E
CENTAUR R/B 3.5 20:58:04 10° NW 21:06:07 60° WSW 21:11:11 27° S
BREEZE-M DEB 4.0 21:03:52 10° W 21:06:40 50° N 21:14:22 10° ENE
JB-3 4.3 21:02:40 10° NNE 21:06:46 66° ESE 21:07:38 50° SSE
Thor Agena Rocket 4.1 21:02:45 10° NNE 21:07:45 42° E 21:09:05 35° SE
Cosmos 2292 Rocket 3.9 21:08:26 31° ENE 21:08:26 31° ENE 21:10:45 10° NNE
STARLINK-1374 3.5 21:04:11 10° WSW 21:08:10 83° NW 21:12:10 10° NE
STARLINK-1231 3.9 21:06:38 10° NW 21:10:46 63° NNE 21:12:15 36° E
Cosmos 1655 Rocket 3.9 21:09:11 30° S 21:12:26 79° E 21:18:44 10° N
STARLINK-1339 3.6 21:08:30 10° WSW 21:12:28 77° NNW 21:16:28 10° NE
Cosmos 1726 2.1 21:10:36 10° N 21:14:19 64° E 21:14:42 59° ESE
ATLAS 3B R/B 2.7 21:07:41 10° NW 21:14:31 85° NE 21:18:07 32° SE
STARLINK-1232 3.8 21:11:38 10° NW 21:15:47 68° NNE 21:17:03 41° E
STARLINK-1377 3.7 21:12:49 10° WSW 21:16:48 72° NNW 21:20:47 10° NE
Cosmos 1674 3.5 21:18:37 35° E 21:18:37 35° E 21:21:59 10° NNE
Cosmos 1503 Rocket 4.4 21:14:19 10° NNW 21:19:31 55° WSW 21:21:37 34° SSW
STARLINK-1208 3.7 21:16:36 10° NW 21:20:45 73° NNE 21:21:50 47° ESE
STARLINK-1353 3.8 21:17:08 10° WSW 21:21:06 68° NNW 21:25:05 10° NE
Cosmos 1470 3.9 21:18:27 10° NNW 21:22:02 36° W 21:23:07 29° SW
BREEZE-M DEB (TANK) 4.2 21:11:14 10° W 21:23:53 55° NNW 21:27:30 10° ENE
Meteor 2-10 3.9 21:18:59 10° NNW 21:24:02 80° W 21:25:45 43° S
STARLINK-1375 3.9 21:21:30 10° WSW 21:25:27 63° NNW 21:29:25 10° NE
STARLINK-1271 3.6 21:21:34 10° NW 21:25:44 79° NE 21:26:37 54° ESE
BREEZE-M DEB (TANK) 2.6 21:18:17 10° SW 21:26:44 62° SSE 21:29:51 10° ENE
SeaSat 1 3.2 21:23:19 10° NE 21:27:44 32° ESE 21:27:48 32° ESE
BREEZE-M DEB (TANK) 3.8 21:25:47 10° WNW 21:29:19 48° NNE 21:32:59 12° E
STARLINK-1350 4.0 21:25:49 10° WSW 21:29:46 59° NNW 21:33:44 10° NE
Cosmos 883 Rocket 4.5 21:23:48 10° N 21:29:55 68° E 21:32:14 39° SSE
COSMOS 2455 3.3 21:24:22 10° SW 21:30:19 61° NW 21:36:18 10° NNE
Cosmos 1606 Rocket 4.1 21:26:30 10° N 21:30:39 43° ENE 21:31:19 40° ESE
STARLINK-1154 3.5 21:26:32 10° NW 21:30:41 85° NE 21:31:22 61° ESE
Cosmos 1340 Rocket 2.8 21:27:29 10° NNW 21:31:35 79° W 21:32:10 63° SSW
Cosmos 1025 Rocket 4.0 21:30:38 26° SW 21:32:32 42° WNW 21:36:40 10° N
ATLAS 3B CENTAUR R/B 4.3 21:24:21 10° WSW 21:34:01 23° SSW 21:35:20 23° SSW
STARLINK-1352 4.2 21:30:14 10° WSW 21:34:10 55° NNW 21:38:07 10° NE
STARLINK-1197 3.5 21:31:31 10° NW 21:35:41 89° SSW 21:36:10 69° SE
COSMOS 2487 3.2 21:33:01 10° NNW 21:36:14 42° W 21:36:14 42° W
ALOS 2 3.8 21:37:12 28° E 21:38:10 31° ENE 21:42:02 10° N
STARLINK-1368 4.3 21:34:40 10° WSW 21:38:35 52° NNW 21:42:30 10° NE
STARLINK-1198 3.4 21:36:30 10° WNW 21:40:39 82° SW 21:40:56 75° SSE
STARLINK-1369 4.4 21:38:38 10° WSW 21:42:29 49° NNW 21:46:21 10° NE
Aureole 3 3.3 21:39:55 10° N 21:42:17 52° N 21:42:17 52° N
RESURS DK-1 2.6 21:42:39 45° SW 21:43:44 67° WNW 21:47:53 10° NNE
ATLAS 5 CENTAUR R/B 2.5 21:39:00 10° SW 21:44:11 46° NW 21:46:32 10° NNE
Meteor 2-19 Rocket 4.5 21:42:44 34° SSW 21:45:33 76° W 21:51:41 10° N
STARLINK-1199 3.4 21:41:28 10° WNW 21:45:37 76° SW 21:45:43 75° SSW
Cosmos 1626 3.6 21:46:19 25° ENE 21:46:19 25° ENE 21:48:54 10° NNE
CZ-4C R/B 3.4 21:46:27 22° E 21:46:27 22° E 21:50:04 10° ENE
Meteor 1-24 Rocket 4.3 21:44:56 35° ESE 21:45:56 38° E 21:51:01 10° NNE
Cosmos 1953 2.9 21:43:03 10° NNW 21:46:51 44° W 21:47:21 42° WSW
Cosmos 2297 Rocket 3.3 21:43:16 10° N 21:48:27 35° NE 21:51:11 23° ESE
STARLINK-1210 3.5 21:46:28 10° WNW 21:50:30 69° SW 21:50:30 69° SW
Spot 4 3.8 21:50:03 56° SSE 21:51:06 86° ENE 21:55:58 10° NNW
Lacrosse 4 Rocket 3.9 21:49:26 10° N 21:52:12 16° NE 21:54:47 11° E
Cosmos 2219 3.9 21:46:56 10° NNW 21:52:22 45° ENE 21:54:40 30° ESE
Cosmos 921 Rocket 3.0 21:52:46 59° ESE 21:52:49 59° ESE 21:57:09 10° NNE
Cosmos 220 Rocket 4.1 21:52:58 58° ESE 21:53:03 58° ESE 21:57:26 10° NNE
Cosmos 2228 2.8 21:49:28 10° N 21:53:43 75° E 21:54:03 70° SE
STARLINK-1219 3.7 21:51:29 10° WNW 21:55:18 62° WSW 21:55:18 62° WSW
SL-4 R/B 4.2 21:51:48 10° WNW 21:56:09 32° N 22:00:30 10° ENE
STARLINK-1211 3.9 21:56:29 10° WNW 22:00:05 54° WSW 22:00:05 54° WSW
SL-4 R/B 4.0 22:03:44 13° N 22:03:44 13° N 22:04:03 10° N
EO 1 Del DPAF 3.7 22:00:54 10° N 22:04:35 51° WNW 22:04:56 49° W
STARLINK-1245 4.1 22:01:27 10° WNW 22:04:51 47° WSW 22:04:51 47° WSW
ATLAS 2AS CENTAUR R/B 4.4 21:58:22 10° WSW 22:05:43 38° NW 22:12:59 10° NNE
STARLINK-1138 4.5 22:03:43 10° NW 22:07:44 47° NNE 22:09:16 31° E
Timation 2 Rocket 3.9 22:01:50 10° NNW 22:08:03 73° WSW 22:09:46 48° S
Cosmos 1809 Rocket 4.4 22:07:49 47° S 22:09:44 77° E 22:15:57 10° NNE
Okean 1-7 Rocket 3.7 22:09:54 61° ESE 22:10:11 62° E 22:14:41 10° NNE
STARLINK-1233 4.3 22:06:27 10° WNW 22:09:38 41° W 22:09:38 41° W
Helios 1A 4.0 22:10:55 34° E 22:11:29 36° ENE 22:15:18 10° N
STARLINK-1143 4.4 22:08:42 10° NW 22:12:45 50° NNE 22:14:03 35° E
Cosmos 1697 Rocket 3.9 22:12:54 26° ESE 22:13:13 26° ESE 22:17:49 10° NE
ATLAS CENTAUR R/B 4.3 22:11:12 10° WNW 22:13:44 15° NW 22:16:11 10° N
Cosmos 1726 Rocket 3.4 22:09:35 10° N 22:13:56 81° W 22:14:12 76° SSW
Cosmos 1892 Rocket 3.3 22:14:31 78° SSE 22:14:46 86° E 22:19:09 10° N
BREEZE-M R/B 3.9 22:05:28 10° WSW 22:15:18 86° NNW 22:19:44 10° ENE
STARLINK-1241 4.2 22:13:41 10° NW 22:17:45 53° NNE 22:18:52 40° E
SJ 16-02 2.4 22:17:32 10° N 22:21:40 36° ENE 22:22:33 33° E
Cosmos 1437 4.4 22:23:34 29° NNE 22:23:34 29° NNE 22:25:16 10° NNE
STARLINK-1239 4.1 22:18:39 10° NW 22:22:45 57° NNE 22:23:39 45° ENE
Nadezhda 2 Rocket 4.4 22:21:48 48° S 22:23:41 88° W 22:29:53 10° N
Cosmos 2315 Rocket 4.3 22:18:27 10° NNW 22:24:31 58° W 22:26:32 40° SSW
Cosmos 1763 Rocket 4.3 22:25:58 33° ESE 22:26:08 33° ESE 22:30:40 10° NE
Cosmos 2227 Rocket 2.6 22:20:47 10° NNW 22:26:25 58° ENE 22:28:23 38° ESE
STARLINK-1240 4.0 22:23:36 10° NW 22:27:43 61° NNE 22:28:24 52° ENE
STARLINK-1216 3.9 22:28:35 10° NW 22:32:43 66° NNE 22:33:11 60° ENE
SL-14 R/B 3.4 22:36:22 69° NW 22:36:22 69° NW 22:39:58 10° N
Cosmos 1356 Rocket 3.6 22:33:24 10° N 22:37:37 60° ENE 22:37:47 60° E
STARLINK-1237 3.7 22:33:33 10° NW 22:37:43 71° NNE 22:37:58 68° ENE
Nadezhda 1 Rocket 4.4 22:32:31 10° N 22:38:41 56° ENE 22:40:51 38° SE
STARLINK-1202 3.6 22:38:32 10° NW 22:42:42 77° NNE 22:42:45 76° NE
Meteor 2-16 Rocket 4.4 22:43:09 51° S 22:44:49 81° E 22:50:58 10° N
STARLINK-1203 3.6 22:42:29 10° NW 22:46:22 77° NNW 22:46:22 77° NNW
Meteor 2-5 Rocket 4.4 22:46:11 34° WSW 22:48:05 47° WNW 22:53:33 10° N
USA 215 3.8 22:42:33 10° ESE 22:48:56 58° NNE 22:55:20 10° NW
Cosmos 1300 3.1 22:45:52 10° NNW 22:49:12 57° WNW 22:49:12 57° WNW
STARLINK-1246 3.6 22:48:30 10° NW 22:52:19 75° NW 22:52:19 75° NW
Meteor 2-10 Rocket 4.4 22:47:53 10° N 22:52:42 39° ENE 22:54:09 32° ESE
YAOGAN 11 3.9 22:54:28 79° SE 22:54:41 82° ENE 22:59:00 10° NNW
STARLINK-1224 3.7 22:53:27 10° NW 22:57:05 66° WNW 22:57:05 66° WNW
Cosmos 1626 Rocket 3.4 22:57:33 83° SE 22:57:39 85° E 23:02:02 10° N
Cosmos 540 Rocket 4.3 23:01:19 34° ESE 23:01:49 35° ESE 23:06:26 10° NE
STARLINK-1225 3.9 22:58:27 10° WNW 23:01:52 58° WNW 23:01:52 58° WNW
SL-08 ROCKET BODY 4.2 23:01:21 53° S 23:02:48 82° E 23:08:40 10° N
ATLAS 3B R/B 4.2 22:59:44 10° WNW 23:04:27 20° WSW 23:05:21 19° WSW
SeaSat 1 3.6 23:00:44 10° NNE 23:05:15 37° NW 23:07:34 24° WSW
FALCON 9 R/B 3.7 23:08:52 31° SE 23:08:52 31° SE 23:17:04 10° ESE
STARLINK-1230 4.1 23:03:25 10° WNW 23:06:38 51° WNW 23:06:38 51° WNW
Cosmos 2058 Rocket 4.2 23:05:46 10° NNW 23:09:44 32° W 23:09:53 32° W
Cosmos 1980 Rocket 2.8 23:10:05 38° SE 23:10:58 41° ESE 23:16:13 10° NE
STARLINK-1243 4.3 23:08:26 10° WNW 23:11:27 44° WNW 23:11:27 44° WNW
Helios 1B rocket 2.6 23:10:00 10° NNE 23:14:05 62° E 23:14:05 62° E
ALOS 2 4.0 23:14:35 26° W 23:14:35 26° W 23:18:10 10° NW
Cosmos 468 Rocket 4.0 23:14:13 56° SW 23:15:14 74° WNW 23:20:23 10° NNE
STARLINK-1236 4.5 23:13:24 10° WNW 23:16:12 39° W 23:16:12 39° W
Cosmos 1745 Rocket 3.9 23:16:47 47° SSW 23:18:36 74° W 23:24:45 10° N
STARLINK-1317 4.2 23:21:44 43° E 23:21:44 43° E 23:24:34 10° ENE
Cosmos 1626 4.1 23:20:51 20° WNW 23:20:59 20° WNW 23:23:46 10° NNW
Cosmos 2369 3.6 23:20:10 55° SSW 23:21:29 86° ESE 23:27:11 10° NNE
ERBS 3.8 23:20:26 10° NW 23:22:16 30° NW 23:22:16 30° NW
Meteor 1-29 4.0 23:21:59 10° NNE 23:24:32 39° ENE 23:24:32 39° ENE
Cosmos 1455 2.4 23:21:38 10° N 23:25:11 62° ENE 23:25:11 62° ENE
Cosmos 1937 Rocket 3.4 23:20:31 10° NNW 23:25:49 89° ENE 23:27:02 55° SSE
STARLINK-1274 4.4 23:27:24 35° ENE 23:27:24 35° ENE 23:29:39 10° ENE
Cosmos 1812 Rocket 3.4 23:22:24 10° NNW 23:26:52 75° W 23:27:04 73° SW
STARLINK-43 4.4 23:26:08 37° WNW 23:26:53 42° NNW 23:30:25 10° NE
STARLINK-55 4.3 23:28:11 38° NE 23:28:11 38° NE 23:30:22 10° NE
Cosmos 2263 Rocket 3.9 23:23:35 10° N 23:28:22 28° NE 23:33:07 10° ESE
STARLINK-1291 4.1 23:30:04 45° ENE 23:30:04 45° ENE 23:32:48 10° ENE
Alouette 2 Rocket 3.6 23:25:25 10° N 23:29:59 59° ENE 23:30:22 55° ESE
Cosmos 1656 4.5 23:27:54 29° WSW 23:30:15 44° WNW 23:35:36 10° NNE
Cosmos 1703 3.7 23:30:32 52° E 23:30:32 52° E 23:34:20 10° NNE
Lacrosse 4 Rocket 1.5 23:27:07 10° NW 23:31:03 63° W 23:31:03 63° W
Cosmos 1825 Rocket 3.7 23:31:32 55° ESE 23:31:54 57° E 23:36:10 10° NNE
STARLINK-1264 3.9 23:33:15 50° ENE 23:33:15 50° ENE 23:36:07 10° ENE
Cosmos 2297 Rocket 2.8 23:27:20 10° NW 23:32:29 37° WSW 23:32:59 36° WSW
CZ-4C R/B 2.6 23:31:35 33° WSW 23:33:42 54° NW 23:39:35 10° NNE
Cosmos 1898 Rocket 3.6 23:29:20 10° NNW 23:34:32 56° WSW 23:35:13 51° SW
Cosmos 1602 Rocket 4.0 23:35:23 47° W 23:35:42 48° WNW 23:39:55 10° N
STARLINK-1267 3.8 23:36:27 55° ENE 23:36:27 55° ENE 23:39:28 10° ENE
Cosmos 2219 4.3 23:31:33 10° NW 23:36:16 28° WSW 23:36:34 28° WSW
SL-4 R/B 3.7 23:32:09 10° NW 23:36:45 41° NNE 23:41:16 10° E
Cosmos 2360 4.1 23:35:46 52° SSW 23:37:15 87° ESE 23:43:00 10° NNE
STARLINK-28 4.0 23:39:11 44° N 23:39:11 44° N 23:41:52 10° NE
STARLINK-1207 3.5 23:42:56 68° NE 23:42:56 68° NE 23:46:14 10° NE
PSLV R/B 3.7 23:39:00 10° N 23:43:22 62° WNW 23:43:52 57° WSW
Cosmos 990 Rocket 4.4 23:39:11 10° NNW 23:44:08 43° WSW 23:44:36 42° WSW
STARLINK-1266 3.4 23:46:11 74° NE 23:46:11 74° NE 23:49:37 10° NE
ATLAS CENTAUR R/B 3.8 23:43:11 10° WNW 23:43:35 14° WNW 23:43:35 14° WNW
Cosmos 2082 3.8 23:41:36 10° NNW 23:47:07 57° WSW 23:48:11 49° SSW
STARLINK-33 4.1 23:49:21 41° N 23:49:21 41° N 23:51:54 10° NE
STARLINK-1284 3.4 23:49:26 77° N 23:49:26 77° N 23:53:01 10° NE
Cosmos 2322 Rocket 3.9 23:47:53 17° SE 23:49:55 21° E 23:53:57 10° NE
Cosmos 1814 Rocket 3.9 23:49:00 53° SSW 23:50:19 87° ESE 23:55:39 10° NNE
STARLINK-26 4.0 23:51:17 44° NW 23:51:34 45° NNW 23:54:53 10° NE
STARLINK-1258 3.4 23:52:43 76° NNW 23:52:43 76° NNW 23:56:26 10° NE
STARLINK-1292 3.4 23:56:00 71° NW 23:56:07 72° NNW 23:59:51 10° NE
